{"data":{"norad_id":64159,"epoch":"2026-09-20T21:16:01.828128Z","epoch_age_seconds":106989,"freshness":"FRESH","line1":"1 64159U 25112P   26263.88613227  .00013123  00000+0  40801-3 0  9997","line2":"2 64159  97.2847 310.8961 0000726  60.6316 299.4999 15.33453190 72801","mean_motion":15.3345319,"eccentricity":7.26e-5,"inclination_deg":97.2847,"raan_deg":310.8961,"arg_perigee_deg":60.6316,"mean_anomaly_deg":299.4999,"bstar":0.00040801,"rev_number":7280,"period_min":93.90570311442,"perigee_km":465.02195749716,"apogee_km":466.01565632032,"semimajor_km":6843.6558069087,"source":"CELESTRAK","updated_at":"2026-09-21T09:00:35.240055Z"}}